Miscellaneous Local Product
Issued by NWS North Platte, NE

Home | Current Version | Previous Version | Text Only | Print | Product List | Glossary On
Versions: 1 2 3 4 5 6 7 8 9 10 11 12 13 14 15 16 17 18 19 20 21 22 23 24 25 26 27 28 29 30 31 32 33 34 35 36 37 38 39 40 41 42 43 44 45 46 47 48 49 50
000
AXUS43 KLBF 202310
MISLBF


WESTERN AND NORTH CENTRAL NEBRASKA HOURLY WEATHER ROUNDUP
NATIONAL WEATHER SERVICE NORTH PLATTE NE
500 PM CST FRI JAN 20 2017

NOTE: "FAIR" INDICATES FEW OR NO CLOUDS BELOW 12,000 FEET WITH NO
SIGNIFICANT WEATHER AND/OR OBSTRUCTIONS TO VISIBILITY.

NOTE: STATIONS NOT REPORTING VARIABLES SUCH AS SKY/WEATHER OR
PRESSURE ARE PROVIDED BY RAWS AND APRS NETWORKS AND ARE NOT UNDER
NATIONAL WEATHER SERVICE QUALITY CONTROL.

...OBSERVATIONS IN AND NEAR THE EASTERN PANHANDLE OF NEBRASKA...

CITY           SKY/WX    TMP DP  RH WIND       PRES   REMARKS
PINE RIDGE     MOCLDY    36  32  85 W6        29.34S WCI  31
CHADRON        CLOUDY    36  31  82 W8        29.36R WCI  30
ALLIANCE       CLOUDY    38  30  73 NW8       29.35R WCI  32
SIDNEY         CLOUDY    38  30  73 NW18      29.38R WCI  28
CRESCENT LAKE    N/A     38  30  73 NW8         N/A  WCI  32
$$

...OBSERVATIONS IN NORTHERN NEBRASKA AND FAR SOUTHERN SOUTH DAKOTA...

CITY           SKY/WX    TMP DP  RH WIND       PRES   REMARKS
WINNER         FAIR      36  28  73 W6        29.33R WCI  31
VALENTINE      PTCLDY    39  28  64 W6        29.33S WCI  35
THEDFORD       CLOUDY    39  33  81 SW6       29.35S WCI  34
AINSWORTH      PTCLDY    39  32  75 SW6       29.33S
O`NEILL        CLOUDY    43  39  88 S10       29.37S
ORD            CLOUDY    40  38  93 S3        29.37S FOG
BROKEN BOW     CLOUDY    40  37  89 S6        29.35S
VALENTINE NWR    N/A     40  30  67 SW6         N/A
BUTTE            N/A     45  36  71 SE8         N/A
HALSEY           N/A     40  33  77 S5          N/A
SARGENT          N/A     40  32  74 CALM        N/A
CHAMBERS         N/A     41  38  89 S3          N/A
EWING            N/A     41  39  94 S5G12       N/A
$$

...OBSERVATIONS IN SOUTHWEST NEBRASKA AND FAR NORTHEAST COLORADO...

CITY           SKY/WX    TMP DP  RH WIND       PRES   REMARKS
HOLYOKE        FAIR      43  32  65 NW7       29.37R
IMPERIAL       CLOUDY    42  34  73 W3        29.36R
OGALLALA       CLOUDY    41  33  72 NW5       29.36R
NORTH PLATTE   CLOUDY    39  33  79 W3        29.36R
MCCOOK         CLOUDY    39  36  89 W5        29.37R
LEXINGTON      CLOUDY    41  37  85 CALM      29.35F
STAPLETON        N/A     37  33  87 CALM        N/A
GOTHENBURG       N/A     41  35  77 SW3         N/A
CALLAWAY         N/A     38  35  89 SW7         N/A  WCI  33
$$

...OBSERVATIONS IN CENTRAL LINCOLN COUNTY AREA...

CITY           SKY/WX    TMP DP  RH WIND       PRES   REMARKS
N.P. AIRPORT   CLOUDY    39  33  79 W3        29.36R
N.P. DOWNTOWN    N/A     40  35  82 CALM        N/A
N.P. SOUTHEAST   N/A     40  35  81 CALM        N/A
N.P. HILLCREST   N/A     38  34  86 CALM        N/A
$$

...SOME OBSERVATIONS FROM AROUND THE REGION...

CITY           SKY/WX    TMP DP  RH WIND       PRES   REMARKS
LARAMIE        CLOUDY    28  17  63 NW13      29.40R WCI  17
CHEYENNE       CLOUDY    36  19  50 NW15G28   29.38R WCI  27
DENVER         PTCLDY    43  28  55 E8        29.37R
AKRON          CLOUDY    39  31  72 NW13      29.38R WCI  31
SCOTTSBLUFF    LGT RAIN  38  32  79 W9        29.39R WCI  31
RAPID CITY     PTCLDY    38  30  73 NW20      29.30F WCI  28
BISMARCK       CLOUDY    32  30  92 CALM      29.35R FOG
PIERRE         CLOUDY    19  15  84 NW7       29.32S WCI  10
SIOUX FALLS    FOG       40  40 100 SE10      29.43S VSB 3/4 WCI  33
OMAHA          LGT RAIN  42  39  89 SE3       29.46R FOG
GRAND ISLAND   CLOUDY    40  40 100 SE3       29.39F FOG
KANSAS CITY    CLOUDY    49  46  90 E8        29.44S FOG
WICHITA        CLOUDY    47  43  86 S15       29.44R
OKLAHOMA CITY  PTCLDY    67  32  27 SW23G33   29.48S
DALLAS         PTCLDY    74  37  26 S14       29.58S
AMARILLO       SUNNY     56  20  24 W30G45    29.51R
DODGE CITY     CLOUDY    51  39  63 W7        29.39R
HAYS           CLOUDY    46  38  73 W9        29.40R
GOODLAND       CLOUDY    35  34  96 W8        29.39R WCI  29
$$




USA.gov is the U.S. government's official web portal to all federal, state and local government web resources and services.